San Carlos, CA

1:38 AM PDT on April 25, 2017 (GMT -0700)
San Carlos

Weather History for KSQL - December, 2012

Change the Weather History Date:

Wednesday, December 26, 2012

  Actual Average Record
Temperature  
Mean Temperature 50 °F -  
Max Temperature 53 °F 56 °F 74 °F (1967)
Min Temperature 46 °F 36 °F 28 °F (1962)
Degree Days  
Heating Degree Days 16    
Moisture  
Dew Point 44 °F    
Average Humidity 81    
Maximum Humidity 93    
Minimum Humidity 71    
Precipitation  
Precipitation 0.05 in - - ()
Sea Level Pressure  
Sea Level Pressure 29.99 in    
Wind  
Wind Speed 6 mph (West)    
Max Wind Speed 18 mph    
Max Gust Speed 25 mph    
Visibility 9 miles    
Events Rain    
Averages and records for this station are not official NWS values.
T = Trace of Precipitation, MM = Missing Value Source: NWS Daily Summary

Daily Weather History Graph

Daily Weather History Graph

Search for Another Location

Airport or City:

Trip Planner

Search our weather history database for the weather conditions in past years. The results will help you decide how hot, cold, wet, or windy it might be!

Date:

Astronomy

Dec. 26, 2012 Rise Set
Actual Time 7:22 AM PST 4:57 PM PST
Civil Twilight 6:53 AM PST 5:26 PM PST
Nautical Twilight 6:20 AM PST 5:59 PM PST
Astronomical Twilight 5:48 AM PST 6:31 PM PST
Moon 3:54 PM PST (12/26) 5:50 AM PST (12/26)
Length of Visible Light 10h 33m
Length of Day
9h 35m
Waxing Gibbous, 98% of the Moon is Illuminated
Dec 26
Waxing Gibbous
Dec 28
Full
Jan 4
Last Quarter
Jan 11
New
Jan 18
First Quarter

Hourly Weather History & Observations

Time (PST) Temp. Windchill Dew Point Humidity Pressure Visibility Wind Dir Wind Speed Gust Speed Precip Events Conditions
12:15 AM 50.0 °F - 44.6 °F 82% 29.89 in 10.0 mi West 4.6 mph - N/A   Partly Cloudy
12:30 AM 50.0 °F - 44.6 °F 82% 29.90 in 10.0 mi West 8.1 mph - N/A   Mostly Cloudy
12:55 AM 48.2 °F - 46.4 °F 93% 29.90 in 10.0 mi West 3.5 mph - N/A   Scattered Clouds
1:15 AM 50.0 °F - 44.6 °F 82% 29.90 in 9.0 mi WNW 4.6 mph - 0.01 in Rain Light Rain
1:35 AM 48.2 °F - 44.6 °F 87% 29.91 in 10.0 mi West 5.8 mph - 0.01 in   Mostly Cloudy
1:50 AM 48.2 °F - 44.6 °F 87% 29.91 in 10.0 mi NW 3.5 mph - 0.01 in   Scattered Clouds
2:15 AM 48.2 °F - 44.6 °F 87% 29.91 in 10.0 mi WNW 3.5 mph - N/A   Partly Cloudy
2:30 AM 48.2 °F - 44.6 °F 87% 29.91 in 10.0 mi Calm Calm - N/A   Scattered Clouds
2:50 AM 48.2 °F - 44.6 °F 87% 29.92 in 10.0 mi Calm Calm - N/A   Mostly Cloudy
3:15 AM 48.2 °F - 44.6 °F 87% 29.91 in 10.0 mi NW 3.5 mph - N/A   Mostly Cloudy
3:35 AM 48.2 °F - 42.8 °F 82% 29.91 in 10.0 mi West 5.8 mph - N/A   Mostly Cloudy
3:50 AM 48.2 °F - 42.8 °F 82% 29.91 in 10.0 mi WSW 4.6 mph - N/A   Scattered Clouds
4:15 AM 48.2 °F - 42.8 °F 82% 29.92 in 10.0 mi WSW 3.5 mph - N/A   Scattered Clouds
4:35 AM 48.2 °F - 42.8 °F 82% 29.91 in 8.0 mi West 4.6 mph - N/A Rain Light Rain
4:50 AM 48.2 °F - 42.8 °F 82% 29.92 in 10.0 mi West 8.1 mph - N/A   Partly Cloudy
5:15 AM 48.2 °F - 41.0 °F 76% 29.92 in 9.0 mi WSW 6.9 mph - N/A   Mostly Cloudy
5:35 AM 48.2 °F - 42.8 °F 82% 29.92 in 10.0 mi SW 3.5 mph - N/A   Overcast
5:50 AM 48.2 °F - 42.8 °F 82% 29.92 in 10.0 mi NNE 3.5 mph - N/A Rain Light Rain
6:15 AM 48.2 °F - 44.6 °F 87% 29.93 in 4.0 mi SW 3.5 mph - 0.03 in Rain Light Rain
6:35 AM 48.2 °F - 44.6 °F 87% 29.95 in 6.0 mi Calm Calm - 0.03 in Rain Light Rain
6:50 AM 48.2 °F - 44.6 °F 87% 29.95 in 5.0 mi Calm Calm - 0.04 in Rain Light Rain
6:54 AM 48.2 °F - 44.6 °F 87% 29.95 in 10.0 mi West 3.5 mph - N/A   Mostly Cloudy
7:47 AM 46.4 °F 44.3 °F 44.6 °F 93% 29.97 in 10.0 mi SE 4.6 mph - N/A   Mostly Cloudy
8:48 AM 48.2 °F - 46.4 °F 93% 29.99 in 2.0 mi Calm Calm - N/A Rain Light Rain
9:07 AM 48.2 °F - 46.4 °F 93% 30.00 in 7.0 mi West 3.5 mph - N/A   Mostly Cloudy
9:47 AM 51.8 °F - 46.4 °F 82% 30.01 in 7.0 mi West 8.1 mph - N/A   Mostly Cloudy
10:47 AM 50.0 °F - 44.6 °F 82% 30.02 in 5.0 mi WNW 13.8 mph - N/A Rain Light Rain
11:47 AM 53.6 °F - 46.4 °F 77% 30.01 in 6.0 mi West 6.9 mph - N/A   Mostly Cloudy
12:47 PM 51.8 °F - 44.6 °F 76% 30.00 in 10.0 mi West 16.1 mph 25.3 mph N/A   Mostly Cloudy
1:47 PM 53.6 °F - 44.6 °F 72% 30.00 in 10.0 mi WNW 18.4 mph 25.3 mph N/A   Mostly Cloudy
2:47 PM 51.8 °F - 44.6 °F 76% 30.02 in 10.0 mi West 10.4 mph - N/A   Mostly Cloudy
3:47 PM 51.8 °F - 42.8 °F 71% 30.03 in 10.0 mi West 15.0 mph 23.0 mph N/A   Mostly Cloudy
5:47 PM 50.0 °F - 42.8 °F 76% 30.05 in 10.0 mi West 10.4 mph - N/A   Mostly Cloudy
6:57 PM 50.0 °F - 42.8 °F 76% 30.06 in 10.0 mi West 9.2 mph - N/A   Mostly Cloudy
7:48 PM 50.0 °F - 42.8 °F 76% 30.06 in 10.0 mi West 11.5 mph - N/A   Mostly Cloudy
8:47 PM 50.0 °F - 42.8 °F 76% 30.08 in 10.0 mi WNW 10.4 mph - N/A   Mostly Cloudy
9:15 PM 50.0 °F - 42.8 °F 76% 30.09 in 10.0 mi WNW 4.6 mph - N/A   Scattered Clouds
9:30 PM 50.0 °F - 41.0 °F 71% 30.09 in 10.0 mi WNW 8.1 mph - N/A   Scattered Clouds
9:55 PM 48.2 °F - 41.0 °F 76% 30.10 in 10.0 mi West 4.6 mph - N/A   Partly Cloudy
10:15 PM 50.0 °F - 41.0 °F 71% 30.11 in 10.0 mi West 6.9 mph - N/A   Clear
10:30 PM 48.2 °F - 41.0 °F 76% 30.11 in 10.0 mi West 5.8 mph - N/A   Clear
10:55 PM 48.2 °F - 41.0 °F 76% 30.11 in 10.0 mi WNW 6.9 mph - N/A   Scattered Clouds
11:15 PM 48.2 °F - 41.0 °F 76% 30.12 in 10.0 mi WNW 8.1 mph - N/A   Partly Cloudy
11:30 PM 48.2 °F - 41.0 °F 76% 30.12 in 10.0 mi NW 6.9 mph - N/A   Clear
11:55 PM 48.2 °F - 41.0 °F 76% 30.12 in 10.0 mi WNW 5.8 mph - N/A   Clear